sat.trackr.live / text

‹ back to catalog

NAVSTAR 46 (USA 145)

NORAD 25933 · 1999-055A

PAYLOAD ACTIVE UNKNOWN

§ Identity

Operator
Country
US
Launch date
1999-10-07
Launch site
AFETR
Launch vehicle
Mass (kg)
RCS (m²)
3.98

External: N2YO · Heavens-Above · Gunter

§ Orbital elements

Epoch: 2026-09-19T03:46:01.985088Z

Period
718.00 min
Inclination
51.3786°
Eccentricity
0.0104620
Mean motion
2.00557657 rev/d
Perigee alt
19,904.9 km
Apogee alt
20,460.6 km
Semi-major
26,560.9 km
B*
0.0000e+0
RAAN
291.3478°
Arg perigee
180.3443°
Mean anomaly
272.3709°
Rev number
19,746

§ Raw data

NAVSTAR 46 (USA 145)1 25933U 99055A   26262.15696742 -.00000021  00000+0  00000+0 0  99902 25933  51.3786 291.3478 0104620 180.3443 272.3709  2.00557657197468

JSON: /api/v1/satellites/25933 · /tle

For live sub-satellite position, see the globe view (requires WebGL).

§ Visibility from observer

Set your observer location to see the next 7 days of passes ≥ 10°. The values pass through the URL so the page stays shareable.

No JS? Fill the form by hand. The geolocation button needs JavaScript.